Location: �perlecques
(50.8057°N, 2.1521°E)
Time: 21:41:28
(UTC+00:00)

STARLINK-1215 - Pass Details

Date: 09 April 2020
Orbit: 378 x 381 km, 53.0° (Epoch: 24 May)

Event Time Altitude Azimuth Distance (km) Brightness Sun altitude
Rises 19:46:27 0° 289° (WNW) 2,263 8.8 -11.0°
Reaches altitude 10° 19:48:34 10° 282° (WNW) 1,407 7.1 -11.3°
Maximum altitude 19:51:33 40° 211° (SSW) 580 3.8 -11.7°
Enters shadow 19:53:30 18° 148° (SSE) 1,021 4.5 -11.9°
